Theta_e
295 295 296 296 297 298 298 300 302 305 305 304 304 303 303 302 299 290 283 284 279 269 271 278 279 273 273 272 268 268 270 268 267 264 261 259 254 260 258 263 262 260 257 255 255 255 258 271 270 265 269 274 274 274
295 295 295 295 296 297 296 299 298 305 304 304 303 303 302 302 298 291 282 287 285 276 274 280 281 282 281 280 272 265 269 268 273 264 261 260 256 255 258 257 268 260 264 261 261 262 270 270 269 270 267 272 274 274
295 295 295 294 296 295 295 296 298 304 304 303 303 303 302 301 297 291 286 285 279 273 273 274 276 280 284 282 281 272 267 275 272 273 266 262 260 263 257 258 259 264 262 263 263 269 269 271 272 273 273 272 275 275
294 294 294 294 295 295 296 295 296 303 303 302 302 301 301 300 297 292 284 282 279 272 269 270 279 276 280 281 281 278 273 271 271 270 262 260 261 269 262 267 265 268 266 263 266 271 272 273 272 272 273 273 272 271
294 294 293 293 294 295 293 293 295 302 302 302 301 301 301 298 295 287 283 282 282 278 269 266 272 274 276 277 279 280 278 274 273 272 269 265 268 268 267 266 267 269 268 267 266 272 269 271 272 270 270 270 270 268
293 293 293 293 294 294 293 293 294 302 301 301 301 301 300 296 294 286 282 285 283 279 271 266 269 266 270 274 275 274 275 267 270 274 266 266 271 271 262 256 265 267 267 269 267 267 268 270 272 269 267 268 267 266
293 292 293 294 293 293 293 294 296 301 301 300 300 299 298 296 286 279 276 282 286 281 269 264 264 268 267 267 266 273 276 276 268 264 264 269 272 274 270 266 264 265 266 268 267 266 267 267 265 267 266 266 265 264
292 292 293 293 293 292 292 293 301 301 300 300 299 299 296 294 289 284 286 288 283 270 267 261 261 265 266 264 263 266 263 271 269 264 264 263 265 267 264 260 263 264 264 266 264 264 264 264 265 264 263 262 260 260
292 292 292 293 291 292 292 300 300 300 299 299 297 294 287 283 281 283 289 284 277 273 261 257 260 260 263 260 261 263 269 261 262 257 259 261 253 257 257 258 258 260 261 261 260 260 260 258 259 259 258 258 257 258
291 291 292 292 291 293 293 300 299 299 297 296 290 280 275 283 291 287 275 272 268 261 264 262 254 261 266 259 256 258 255 254 255 258 261 257 252 261 260 259 260 262 261 253 255 255 256 255 256 256 255 255 256 255
291 291 291 292 293 294 299 299 298 296 294 279 270 270 279 285 276 266 260 262 257 259 258 255 257 258 265 259 257 265 256 256 253 259 258 253 253 261 261 261 263 262 258 254 251 253 253 252 252 253 253 254 254 253
291 291 292 293 293 299 298 297 296 288 278 278 277 276 272 265 262 262 252 251 254 258 253 258 259 260 260 264 258 259 256 257 254 258 258 253 260 261 260 260 260 256 254 251 248 250 251 250 250 250 250 251 251 252
291 292 292 294 299 298 297 296 290 290 285 275 270 264 266 258 259 258 255 254 254 251 253 257 257 257 257 260 255 255 254 256 256 256 255 258 261 261 261 260 258 257 253 250 251 250 249 249 249 247 250 252 252 253
292 292 297 298 297 296 294 293 291 285 276 270 265 260 259 256 257 256 258 258 257 254 253 254 252 257 253 257 253 254 255 256 253 254 258 258 260 260 260 260 258 258 258 256 255 254 253 253 253 254 254 255 255 255
296 297 297 296 295 294 293 291 286 276 271 263 265 258 255 252 249 246 245 251 252 252 256 256 254 259 252 255 251 253 253 251 256 259 257 259 259 259 259 259 258 258 258 258 258 257 257 257 257 257 258 258 258 258
297 295 292 294 294 291 290 285 279 271 264 263 259 257 250 256 255 251 247 252 252 255 252 256 250 253 253 253 254 252 251 254 258 255 257 259 258 258 258 258 259 259 258 258 258 258 258 258 257 257 258 259 259 258
293 288 294 293 291 289 288 277 271 264 261 259 256 247 251 254 257 252 250 254 261 255 255 251 253 255 255 252 251 250 253 255 254 254 254 255 256 257 258 258 258 258 258 258 258 258 257 257 257 257 256 258 258 259
287 291 293 292 287 282 273 271 267 263 257 254 260 254 249 249 252 250 249 255 257 252 252 256 257 253 253 252 252 251 251 251 252 250 252 253 252 253 256 256 257 257 257 256 256 256 255 255 255 255 256 256 257 258
289 290 291 289 283 273 271 269 267 260 254 251 251 252 252 253 252 253 251 253 251 253 257 253 253 251 251 248 249 247 246 247 249 250 251 250 250 250 252 252 252 251 251 251 250 250 249 247 246 247 248 248 247 250
288 287 285 283 281 270 267 263 259 260 255 256 252 253 253 254 253 251 248 251 251 251 255 251 250 248 249 248 247 249 248 249 248 248 249 250 250 249 251 249 251 250 250 247 247 247 247 248 244 244 243 242 244 247
281 281 281 274 267 262 257 251 256 253 253 256 250 252 253 251 250 249 250 250 254 246 250 246 246 247 245 245 246 247 248 249 249 250 249 250 253 249 251 249 246 245 244 243 243 247 244 243 245 243 240 242 241 243
270 279 268 270 263 259 258 254 258 253 256 251 251 250 249 251 249 249 249 252 247 248 246 247 247 246 246 248 248 246 248 246 246 247 250 251 249 249 250 246 244 246 244 243 241 242 245 244 243 243 239 244 244 245
273 271 264 264 264 262 258 254 256 252 257 254 249 252 250 248 249 251 250 245 247 249 248 247 249 246 247 246 246 248 247 247 247 247 246 245 243 245 244 243 239 242 245 245 240 241 243 244 244 244 243 243 241 243
268 257 257 255 259 256 252 253 248 249 249 250 250 251 250 249 251 251 249 245 249 250 249 248 245 247 248 247 247 246 246 244 243 246 240 241 243 245 240 243 239 239 241 242 240 241 243 243 244 242 242 240 240 241
264 256 256 255 249 255 253 252 252 253 250 243 249 250 250 247 250 248 249 248 250 250 249 247 246 246 247 245 245 246 245 245 246 244 245 239 239 241 245 241 240 242 238 243 245 244 245 245 244 244 242 240 242 245
253 248 252 248 251 254 252 252 249 249 248 253 249 247 247 251 253 252 251 251 250 249 247 247 247 247 247 248 248 247 247 244 243 243 246 242 241 243 241 241 242 247 238 240 240 242 244 246 244 246 247 247 247 246
251 249 247 246 247 246 248 246 246 248 248 250 249 250 252 252 251 252 252 253 251 249 249 250 250 249 250 251 251 251 250 247 248 250 247 244 245 245 246 244 245 246 241 242 242 242 244 247 247 248 249 250 249 249
246 244 251 248 246 243 246 243 245 246 245 244 245 247 250 249 250 248 251 252 253 252 251 252 251 250 249 250 250 249 247 241 245 246 241 241 239 241 241 242 243 251 249 248 248 248 248 248 250 251 251 252 253 248
247 243 245 247 244 244 241 244 245 244 244 244 246 245 246 246 248 247 249 251 252 251 251 252 252 249 250 248 245 242 240 239 244 247 245 246 245 246 240 241 245 246 247 247 251 255 254 254 255 254 254 253 254 254
246 241 245 242 245 245 244 243 244 244 243 243 243 245 245 248 249 249 248 248 249 250 252 252 252 248 248 246 248 248 238 237 239 244 244 245 246 246 246 247 247 249 250 249 250 251 254 253 252 248 247 249 250 251
238 242 244 243 246 247 244 243 241 241 241 241 241 243 243 244 249 249 247 247 248 250 250 252 252 253 247 249 245 245 246 240 240 243 243 244 245 246 247 248 250 251 251 250 249 250 250 250 250 250 250 250 251 251
243 241 245 247 249 246 246 246 246 244 245 244 245 244 246 248 247 248 251 248 251 250 251 252 251 252 253 252 248 247 249 249 247 247 246 248 248 249 249 250 251 252 252 252 251 251 250 248 250 250 250 251 251 251
240 239 239 243 245 246 244 243 244 245 246 246 245 242 243 246 248 249 248 247 247 248 251 252 253 253 253 252 250 247 247 245 245 250 253 254 253 254 254 254 254 253 253 252 252 251 250 249 250 250 250 251 251 251
Wind_Speed
24 21 21 23 21 23 23 25 21 33 40 37 35 34 33 31 28 9 2 3 6 4 4 3 4 6 4 2 6 5 5 3 3 3 4 5 4 7 1 4 7 9 8 5 3 2 15 6 3 9 8 3 2 5
25 23 20 20 22 20 20 24 31 43 42 39 37 34 32 31 28 12 4 2 3 6 5 1 1 2 1 7 7 2 5 5 5 4 0 4 2 0 3 5 3 3 10 8 11 12 5 4 8 5 4 7 9 8
23 24 21 20 21 14 22 21 31 44 41 38 36 35 32 32 26 11 5 5 5 5 4 4 2 4 4 3 1 6 4 3 3 2 5 3 5 5 4 8 2 6 4 4 3 12 11 11 10 8 5 5 4 4
22 22 21 19 18 15 16 19 20 42 39 38 37 36 33 31 22 12 5 2 6 4 5 5 2 3 4 6 3 3 6 4 5 3 3 3 3 5 5 6 7 6 6 5 11 16 11 13 2 2 5 4 6 5
20 19 18 17 13 14 13 14 24 34 37 38 36 35 33 30 25 12 5 1 2 6 6 3 2 4 5 3 3 3 5 4 2 2 2 4 3 3 2 1 9 4 7 8 13 12 7 9 8 6 5 7 8 9
19 17 15 15 15 13 10 16 23 38 38 38 35 33 33 31 24 5 3 1 1 3 6 2 2 5 6 7 7 5 2 2 3 3 4 4 2 4 3 4 5 6 7 7 6 11 9 12 3 10 9 8 8 9
17 14 13 14 10 10 14 22 23 39 38 38 36 36 33 27 6 4 6 4 7 4 5 4 4 3 3 3 3 2 1 0 4 1 1 3 3 4 2 9 9 8 10 5 9 12 5 9 9 13 10 11 10 11
13 12 14 10 9 10 14 30 41 40 40 39 38 34 32 30 15 8 6 8 6 7 6 4 4 5 5 2 2 2 2 3 3 2 2 2 4 2 3 2 6 8 9 4 12 10 12 15 10 9 8 9 11 11
14 11 12 11 5 9 14 39 43 42 42 42 39 33 10 7 4 4 15 16 6 6 5 4 5 4 3 1 1 3 2 1 2 1 2 3 3 4 3 2 4 6 4 8 11 12 12 6 11 9 8 9 10 13
11 8 9 8 8 14 17 42 45 46 45 40 17 8 5 3 26 9 10 5 7 6 4 3 2 1 3 3 3 3 2 1 1 5 2 3 4 1 2 1 3 7 4 5 10 11 11 13 12 14 11 9 11 12
8 8 10 13 10 11 41 47 49 46 34 6 6 4 1 5 5 5 3 5 3 4 2 1 3 3 3 3 3 0 3 1 3 5 3 3 5 3 2 3 8 7 6 7 5 8 9 10 12 12 13 13 12 12
11 12 15 13 12 42 49 50 44 16 3 11 15 9 4 6 5 8 1 3 3 5 2 4 3 3 1 2 4 4 3 4 4 1 3 4 2 2 4 9 10 6 7 9 5 9 11 9 10 10 11 11 11 11
9 11 12 17 39 50 48 38 33 43 26 6 9 7 5 4 8 6 5 4 2 3 4 3 0 2 3 3 3 4 4 5 1 3 4 4 2 3 7 8 9 8 7 7 9 7 8 9 8 6 10 9 10 9
13 15 26 47 49 44 40 45 34 11 9 8 7 6 4 2 2 5 5 6 4 4 4 4 2 3 1 4 2 5 4 3 3 1 6 1 3 8 8 7 8 12 11 9 10 10 10 10 10 10 8 8 8 8
22 47 49 44 43 42 39 20 12 7 7 6 6 3 2 2 3 0 1 3 2 3 4 4 4 3 3 5 2 3 6 3 6 4 1 1 6 7 8 9 10 10 10 10 10 9 10 10 9 9 8 7 6 7
46 41 33 43 37 29 20 13 9 6 6 6 9 6 2 4 4 4 2 2 2 3 2 4 4 5 1 4 4 5 6 6 3 2 2 5 7 7 8 8 9 9 9 9 9 9 9 9 9 9 8 6 7 7
31 11 38 31 26 26 24 9 6 10 7 7 4 3 2 4 5 2 2 2 2 4 3 4 5 7 3 4 2 5 6 3 2 3 2 3 6 7 8 8 9 9 9 9 8 8 7 7 7 6 9 10 9 7
25 23 28 24 16 13 7 8 7 8 8 3 3 3 3 1 4 2 2 1 2 3 3 4 5 4 5 5 4 4 2 3 2 3 3 4 4 5 5 7 8 7 7 7 6 6 5 6 7 6 8 9 8 8
21 17 24 19 12 9 6 7 6 7 1 0 2 2 3 2 1 0 0 2 1 1 5 4 5 3 3 3 4 3 2 2 3 3 4 5 4 4 6 5 6 5 5 5 4 3 3 4 2 3 4 4 3 4
30 27 25 26 12 6 8 5 4 7 3 2 3 4 3 2 1 1 2 4 3 3 6 4 3 4 4 3 4 3 3 2 1 4 4 3 3 4 5 3 4 5 5 4 4 4 4 5 2 3 3 2 3 4
15 7 16 10 8 11 7 2 6 3 3 4 0 2 1 3 4 4 3 3 5 3 2 3 3 4 2 3 2 2 2 2 3 4 4 5 4 2 4 4 3 3 2 3 3 5 3 3 4 4 4 4 3 4
2 11 6 7 7 6 7 2 5 2 5 3 3 2 3 3 3 3 2 5 2 2 3 2 3 2 2 2 3 3 3 2 3 3 4 4 4 4 5 2 3 4 3 4 2 4 5 5 4 4 3 5 4 4
8 8 7 8 9 8 2 2 6 6 5 1 2 4 3 3 2 1 4 2 3 3 2 2 4 3 3 3 2 3 2 1 3 3 3 3 4 5 4 3 2 2 4 4 2 4 4 5 5 5 4 4 3 3
13 11 8 6 6 2 3 6 3 4 4 5 4 3 2 1 3 4 2 2 3 2 3 4 2 3 3 3 1 2 3 1 2 4 2 1 3 4 3 4 3 4 4 4 3 4 3 3 4 4 3 3 3 3
12 11 7 7 4 6 6 5 5 5 3 2 4 2 2 2 3 3 0 3 3 2 2 3 2 2 1 3 3 4 3 2 1 3 4 4 1 3 4 3 4 5 3 3 5 5 6 5 4 4 3 3 5 6
10 6 5 1 4 5 1 3 2 3 3 2 1 2 1 3 4 0 1 2 2 1 1 2 2 3 3 3 3 4 4 3 3 2 5 5 4 3 3 3 4 5 3 2 1 4 6 5 4 6 6 6 6 5
6 4 3 1 3 3 4 3 2 4 4 2 2 1 3 4 1 2 1 1 2 2 2 3 3 3 5 6 5 5 4 3 6 6 4 4 5 5 5 4 4 5 3 5 4 5 6 8 8 7 8 8 6 5
3 2 4 4 5 2 5 3 3 2 1 2 2 4 4 4 2 3 2 2 4 4 4 4 3 2 3 5 5 5 6 3 7 7 4 4 4 3 4 4 5 12 8 6 6 6 7 8 8 9 9 10 10 4
4 3 1 6 4 6 3 2 1 2 2 1 4 2 2 2 2 2 3 4 5 3 3 5 4 2 4 4 3 3 2 0 5 6 5 4 4 4 2 4 6 6 5 5 10 11 11 11 11 10 10 9 10 9
4 2 5 3 5 3 3 2 1 1 1 0 1 2 3 1 3 1 2 3 3 4 5 5 5 2 4 4 7 8 1 3 2 3 1 4 5 5 6 6 6 6 5 5 7 9 10 8 7 5 5 7 6 8
1 3 5 4 2 1 2 1 1 1 1 1 1 3 2 2 3 2 2 2 3 4 4 7 7 4 3 5 3 5 6 2 5 7 6 6 8 9 9 8 7 6 6 6 7 8 9 9 8 10 11 12 13 11
4 3 4 3 0 1 1 2 1 2 3 3 4 2 2 3 2 3 2 2 4 6 6 7 9 10 8 5 4 4 9 8 7 6 8 7 8 9 9 8 7 7 8 9 9 9 10 11 11 12 13 17 17 16
3 2 2 3 4 3 3 3 4 2 4 3 3 1 0 1 1 4 2 2 2 3 6 8 10 9 10 9 7 5 6 5 9 12 16 17 16 14 10 8 8 9 11 10 11 10 13 15 14 16 17 17 18 18
Wind_Direction
238 242 243 245 247 251 264 279 233 208 175 179 177 181 176 171 161 129 129 169 120 123 260 171 169 131 85 114 146 214 74 335 50 133 144 209 171 216 143 200 181 169 166 199 87 242 265 209 42 189 217 195 232 266
234 239 244 242 249 254 249 300 308 184 173 173 175 174 173 164 157 120 114 179 124 91 198 189 282 346 124 176 129 339 171 162 167 95 295 89 209 64 176 250 168 275 191 187 179 212 232 209 213 245 170 250 278 276
235 235 240 243 245 253 271 294 284 166 166 169 167 167 167 160 155 124 120 156 69 93 352 46 271 339 35 19 137 125 294 189 181 161 153 186 220 134 177 241 197 269 154 215 89 244 236 258 263 257 274 261 325 16
231 230 237 251 241 249 255 281 289 159 165 162 165 162 159 156 139 108 113 180 89 105 111 277 334 51 359 14 58 101 140 57 91 99 133 152 164 176 218 244 216 209 144 211 257 271 284 269 240 23 329 357 357 2
226 228 237 255 237 232 262 297 298 174 160 160 158 155 152 138 113 89 89 63 108 121 165 230 113 357 0 3 117 121 129 129 131 166 181 229 212 132 209 39 258 188 260 242 259 293 295 285 24 8 342 344 349 340
219 226 241 237 230 257 273 259 277 165 158 152 150 146 135 128 120 100 88 336 82 110 97 72 264 6 356 25 55 48 86 118 144 184 217 255 264 158 203 224 53 23 3 341 330 340 303 285 55 32 355 345 335 322
214 223 223 221 223 247 265 238 281 154 149 145 143 132 132 125 81 94 172 159 152 93 80 24 349 339 5 43 34 64 351 164 134 227 271 262 226 214 249 263 31 14 344 347 23 351 336 5 319 329 331 325 316 300
209 213 204 213 207 242 271 279 155 148 143 138 128 129 117 108 91 58 31 86 81 85 64 110 271 32 16 350 19 339 48 14 339 246 335 251 339 328 249 25 8 351 338 323 350 339 299 296 294 309 318 315 304 298
208 207 204 195 214 255 244 151 144 138 131 124 116 108 80 45 73 102 100 73 62 100 126 91 121 245 5 301 257 23 8 9 289 61 281 69 318 224 194 54 345 321 306 299 313 309 302 300 305 305 307 306 294 299
209 185 188 211 217 211 282 143 132 127 120 121 103 65 67 94 122 104 16 27 27 340 27 112 25 258 79 360 337 61 16 189 21 258 341 58 257 164 146 173 288 308 313 329 321 318 318 305 309 305 298 291 284 288
182 226 229 205 256 262 148 131 126 126 120 69 75 79 107 58 62 39 67 75 321 14 7 201 153 151 316 99 213 241 193 247 46 271 99 315 285 207 130 333 333 333 319 292 243 283 284 279 290 293 296 295 294 291
209 214 209 239 218 147 131 130 131 111 93 130 112 91 69 47 49 85 22 323 67 213 308 133 216 167 294 65 92 328 115 38 244 257 64 283 247 102 360 328 317 304 298 293 269 285 288 282 279 281 283 283 277 279
229 243 237 203 149 129 130 121 111 122 111 71 65 71 70 309 58 122 174 301 354 185 203 153 90 124 3 47 59 73 72 230 34 46 234 237 112 356 329 312 302 301 290 282 294 286 277 277 281 246 280 276 272 272
258 251 157 132 130 122 121 129 135 109 73 74 103 75 114 311 223 172 164 157 208 117 137 112 72 144 223 59 158 87 245 61 20 299 239 103 356 320 316 312 310 315 316 299 299 297 297 298 300 299 281 277 282 296
162 129 129 121 120 125 129 121 104 52 70 83 70 97 84 211 51 200 302 88 305 115 92 68 41 85 354 86 51 89 24 268 211 241 267 302 323 314 318 323 320 319 320 317 318 313 309 310 311 311 316 306 298 308
124 111 116 119 117 119 111 75 44 73 57 67 53 84 333 63 346 25 346 74 197 102 53 53 111 63 288 130 75 209 126 227 253 236 278 322 317 319 320 321 319 318 320 318 319 319 321 331 330 321 323 333 330 326
96 97 119 114 103 76 50 68 55 48 78 50 19 25 111 75 129 196 119 203 146 80 165 119 89 195 109 53 306 191 204 221 220 273 272 283 299 314 317 319 323 323 324 327 328 331 326 325 322 342 352 343 336 333
107 114 109 102 93 65 42 35 74 66 59 7 82 305 53 34 98 357 264 272 103 132 113 188 124 93 164 169 264 245 253 264 236 238 264 278 284 291 309 315 318 319 321 321 323 318 325 344 352 348 339 338 330 347
110 95 83 77 79 80 68 38 40 87 85 189 74 41 72 75 88 37 316 327 212 171 106 41 79 163 220 216 194 260 264 213 262 283 268 273 281 298 304 307 300 307 313 310 326 317 313 318 282 322 317 335 326 330
73 60 61 52 55 76 68 32 35 83 104 202 55 38 82 104 286 24 13 8 55 61 41 54 185 216 177 229 196 203 216 211 142 317 300 295 289 313 304 292 296 304 307 322 332 349 342 332 322 336 327 316 344 321
64 15 42 56 46 58 82 21 53 123 145 80 295 71 90 15 33 21 357 334 58 54 53 219 236 258 257 255 227 194 259 182 207 192 236 296 312 303 301 304 313 336 355 308 315 314 328 284 285 307 309 293 270 267
19 37 66 33 78 57 78 352 110 160 72 144 64 47 52 48 3 338 273 52 62 247 191 201 245 238 329 300 257 203 227 241 267 276 282 285 306 322 311 290 345 319 313 281 249 286 294 284 298 300 301 296 302 289
34 47 46 29 69 48 296 38 73 4 88 335 29 60 15 17 263 346 64 203 244 241 227 227 264 237 222 285 329 321 239 257 317 305 290 264 263 271 272 276 202 247 315 293 228 277 280 302 303 305 309 314 329 311
35 50 44 47 41 108 2 25 38 61 48 37 58 56 344 231 324 51 84 280 262 316 16 326 329 339 341 9 333 266 281 179 288 298 258 233 306 292 236 268 250 229 220 278 300 300 294 304 306 323 327 322 318 308
65 356 37 13 358 55 45 20 9 51 74 360 78 356 297 19 72 52 157 280 335 327 304 325 7 40 215 270 288 280 265 186 274 289 272 189 239 317 322 300 265 231 160 2 335 330 321 320 326 329 317 300 308 308
65 324 53 274 324 85 181 79 56 148 119 78 237 264 28 92 68 107 261 285 279 259 297 327 315 323 305 224 277 302 276 188 128 237 272 184 188 175 246 288 321 310 195 158 257 295 300 299 297 310 303 299 285 286
69 343 334 347 120 110 61 38 75 84 80 118 251 81 80 76 220 260 328 1 316 297 266 253 228 229 255 288 271 264 265 205 219 245 265 210 214 201 194 210 252 245 207 240 231 228 270 293 293 288 289 289 258 255
136 41 90 311 55 15 114 67 57 78 239 259 64 50 112 153 202 279 272 322 319 305 288 276 268 230 261 275 278 294 295 309 281 264 277 261 232 226 214 248 261 277 277 265 261 260 248 255 267 276 279 281 290 246
45 327 68 40 37 43 55 83 169 250 225 112 111 122 155 227 243 285 298 324 304 293 320 332 312 303 292 281 275 258 246 294 24 2 344 298 334 326 215 244 265 268 261 265 275 272 268 264 267 263 264 262 273 275
334 16 82 61 68 22 269 172 238 271 33 136 160 80 31 314 251 268 311 331 348 338 312 301 296 317 305 325 320 326 276 182 192 131 248 273 263 289 297 289 284 279 270 267 282 288 285 281 279 280 274 276 271 271
275 46 68 58 98 255 231 179 61 60 38 51 349 105 173 268 303 274 291 286 285 303 324 340 332 319 288 312 309 320 316 269 235 251 250 264 269 272 274 275 276 277 273 270 271 276 280 286 279 282 281 279 279 270
20 65 111 94 207 307 52 46 30 64 358 52 3 37 17 47 10 288 270 339 1 359 342 334 328 320 318 296 247 237 243 277 282 268 272 272 273 269 275 278 275 266 262 266 272 271 272 272 283 280 282 283 281 280
50 55 56 76 31 13 335 66 24 46 35 47 16 358 326 146 195 267 296 193 202 266 323 322 313 308 302 293 277 275 256 250 267 272 278 280 281 283 285 281 278 274 276 277 277 281 282 278 277 277 275 273 275 276